Location: Karcze
(52.0945°N, 22.4786°E)
Time: 06:22:41
(UTC+00:00)

Transit 2A Rocket - Pass Details

Date: 04 August 2021
Orbit: 586 x 917 km, 66.7° (Epoch: 24 September)

Event Time Altitude Azimuth Distance (km) Brightness Sun altitude
Rises 15:11:11 0° 285° (WNW) 3,002 9.2 26.4°
Reaches altitude 10° 15:14:08 10° 305° (NW) 2,151 8.2 25.9°
Maximum altitude 15:17:27 18° 348° (NNW) 1,754 7.1 25.4°
Drops below altitude 10° 15:20:57 10° 30° (NNE) 2,302 7.2 24.9°
Sets 15:24:16 0° 49° (NE) 3,304 7.8 24.4°
